Regional Weather Roundup
Issued by NWS Green Bay, WI

Home | Current Version | Previous Version | Graphics & Text | Print | Product List | Glossary Off
Versions: 1 2 3 4 5 6 7 8 9 10 11 12 13 14 15 16 17 18 19 20 21 22 23 24 25 26 27 28 29 30 31 32 33 34 35 36 37 38 39 40 41 42 43 44 45 46 47 48 49 50

000
ASUS43 KGRB 192010
RWRGRB

NORTH-CENTRAL AND NORTHEAST WISCONSIN REGIONAL WEATHER ROUNDUP
NATIONAL WEATHER SERVICE GREEN BAY WI
300 PM CDT TUE AUG 19 2014

WIZ005-009-010>012-018-019-192100-
NORTH CENTRAL WISCONSIN

CITY           SKY/WX    TMP DP  RH WIND       PRES   REMARKS
IRONWOOD       NOT AVBL
MANITOWISH WTR CLOUDY    64  60  87 NW6       29.73R
ARBOR VITAE    CLOUDY    71  63  76 NW10      29.72S
EAGLE RIVER    CLOUDY    69  58  68 NW9G16    29.71R
LAND O LAKES   CLOUDY    66  60  80 NW9       29.73R
RHINELANDER    MOSUNNY   72  60  66 NW10      29.71R
PHILLIPS       CLOUDY    67  62  85 NW6       29.72R
ANTIGO         PTSUNNY   72  63  73 NW10      29.70S
TOMAHAWK       CLOUDY    68  62  81 N6        29.71R
MERRILL        PTSUNNY   71  66  85 W7        29.70F
$$

WIZ013-073-192100-
NORTHEAST WISCONSIN

CITY           SKY/WX    TMP DP  RH WIND       PRES   REMARKS
IRON MOUNTAIN  PTSUNNY   73  62  68 NW15G22   29.65R
MARINETTE      PTSUNNY   75  63  64 CALM      29.64F
OCONTO         MOSUNNY   74  67  79 SE5       29.64F
$$

WIZ017-030-035>037-045-192100-
CENTRAL WISCONSIN

CITY           SKY/WX    TMP DP  RH WIND       PRES   REMARKS
MEDFORD        LGT RAIN  69  63  82 W9        29.72S
WAUSAU         MOSUNNY   74  62  66 W12       29.69S
MOSINEE        PTSUNNY   75  63  64 W9        29.72S
MARSHFIELD     PTSUNNY   73  62  68 W10       29.72S
WISC RAPIDS    PTSUNNY   75  61  61 W13       29.72S
STEVENS POINT  PTSUNNY   73  62  68 W12G18    29.70S
WAUPACA        CLOUDY    76  65  70 W10G16    29.69S
SHAWANO        CLOUDY    75  63  66 W10G16    29.67S
CLINTONVILLE   RAIN      70  64  83 NW8       29.67R
$$

WIZ038-039-048-051-192100-
FOX VALLEY

CITY           SKY/WX    TMP DP  RH WIND       PRES   REMARKS
NWS GREEN BAY  MOSUNNY   77  67  71 W7        29.66F
APPLETON       PTSUNNY   75  64  69 W12G18    29.69
OSHKOSH        PTSUNNY   76  65  68 W8        29.68F
FOND DU LAC    CLOUDY    77  65  66 W13       29.70S
$$

WIZ022-050-052-192100-
EAST CENTRAL WISCONSIN

CITY           SKY/WX    TMP DP  RH WIND       PRES   REMARKS
STURGEON BAY   MOSUNNY   73  64  73 N5        29.66F
MANITOWOC      CLOUDY    73  65  75 W9        29.68S
SHEBOYGAN      MOSUNNY   75  64  68 W10       29.69S
$$

LMZ563-521-522-541>543-192100-
LAKESHORE

STATION/POSITION TIME  TEMP    WIND        PRES    VSBY  WAVE
                       AIR SEA DIR/SP/G                  HT/PER
                 (UTC) (F)     (DEG/KT/KT) (MB)    (MI)  (FT/S)
SHEBOYGAN LKSHOR 2000   74 67  300/ 14/ 16 1005.2R
KEWAUNEE LKSHORE 2000   76     260/  3/  6 1003.7F
NORTHPORT PIER   2000   66     150/  7/  8 1004.4F
N MID LAKE BUOY  2000   62 62  200/ 10/ 12 1004.0F         2/ 4
S GREEN BAY BUOY 2000   71     VRB  6      1005.2F
CHAMBERS ISLAND  2000   72     160/  5/  9 1004.4F
MENOMINEE LKSHOR 2000   70     160/  9/ 10 1004.7F
$$



USA.gov is the U.S. government's official web portal to all federal, state and local government web resources and services.